| time (UTC) | temp C | wind direction | speed KPH | gust KPH | rain 1hr cm | rain 24hr cm | rain mn cm | humidity % | barometer mb |
| 20260508023343 | 11 | 77 | 0.0 | 0.0 | 0.00 | 0.10 | 0.00 | 99 | 995.9 |
| 20260508022842 | 11 | 237 | 0.0 | 0.0 | 0.00 | 0.10 | 0.00 | 99 | 995.9 |
| 20260508022341 | 11 | 237 | 0.0 | 0.0 | 0.00 | 0.10 | 0.00 | 99 | 995.8 |
| 20260508021841 | 11 | 237 | 0.0 | 0.0 | 0.00 | 0.10 | 0.00 | 99 | 995.8 |
| 20260508021340 | 11 | 237 | 0.0 | 0.0 | 0.00 | 0.10 | 0.00 | 99 | 995.8 |
| 20260508020840 | 11 | 237 | 0.0 | 0.0 | 0.00 | 0.10 | 0.00 | 99 | 995.7 |
| 20260508020339 | 11 | 237 | 0.0 | 0.0 | 0.00 | 0.10 | 0.00 | 99 | 995.8 |
| 20260508015839 | 11 | 237 | 0.0 | 0.0 | 0.00 | 0.10 | 0.00 | 99 | 995.9 |
| 20260508015338 | 11 | 237 | 0.0 | 0.0 | 0.00 | 0.10 | 0.00 | 99 | 995.7 |
| 20260508014838 | 11 | 238 | 0.0 | 0.0 | 0.00 | 0.10 | 0.00 | 99 | 995.7 |
| 20260508014337 | 11 | 238 | 0.0 | 0.0 | 0.00 | 0.10 | 0.00 | 99 | 995.7 |
| 20260508013837 | 11 | 238 | 0.0 | 0.0 | 0.00 | 0.10 | 0.00 | 99 | 995.7 |
| 20260508013336 | 11 | 233 | 0.0 | 1.6 | 0.00 | 0.10 | 0.00 | 99 | 995.8 |
| 20260508012836 | 11 | 173 | 0.0 | 0.0 | 0.00 | 0.10 | 0.00 | 99 | 995.8 |
| 20260508012335 | 11 | 265 | 1.6 | 1.6 | 0.00 | 0.10 | 0.00 | 99 | 996.0 |
| 20260508011835 | 11 | 140 | 1.6 | 1.6 | 0.00 | 0.10 | 0.00 | 99 | 995.7 |
| 20260508011334 | 11 | 313 | 3.2 | 3.2 | 0.00 | 0.10 | 0.00 | 99 | 995.8 |
| 20260508010833 | 11 | 224 | 1.6 | 1.6 | 0.00 | 0.10 | 0.00 | 99 | 995.9 |
| 20260508010333 | 11 | 315 | 0.0 | 0.0 | 0.00 | 0.10 | 0.00 | 99 | 995.4 |
| 20260508005832 | 11 | 260 | 1.6 | 3.2 | 0.00 | 0.10 | 0.00 | 99 | 995.8 |
| 20260508005332 | 11 | 11 | 0.0 | 1.6 | 0.00 | 0.10 | 0.00 | 99 | 995.6 |
| 20260508004831 | 11 | 104 | 0.0 | 0.0 | 0.00 | 0.10 | 0.00 | 99 | 995.9 |
| 20260508004331 | 11 | 199 | 0.0 | 0.0 | 0.00 | 0.10 | 0.00 | 99 | 995.8 |
| 20260508003830 | 11 | 103 | 0.0 | 0.0 | 0.00 | 0.10 | 0.00 | 99 | 995.9 |
| 20260508003329 | 11 | 129 | 0.0 | 0.0 | 0.18 | 0.10 | 0.00 | 99 | 995.8 |
| 20260508002829 | 11 | 115 | 0.0 | 0.0 | 0.18 | 0.10 | 0.00 | 99 | 995.9 |
| 20260508002328 | 11 | 129 | 0.0 | 0.0 | 0.00 | 0.08 | 0.00 | 99 | 996.3 |
| 20260508001828 | 11 | 197 | 0.0 | 0.0 | 0.00 | 0.08 | 0.00 | 99 | 996.0 |
| 20260508001327 | 11 | 197 | 0.0 | 0.0 | 0.00 | 0.08 | 0.00 | 99 | 996.2 |
| 20260508000826 | 11 | 197 | 0.0 | 0.0 | 0.00 | 0.08 | 0.00 | 99 | 996.1 |
| 20260508000327 | 11 | 197 | 0.0 | 0.0 | 0.00 | 0.08 | 0.00 | 99 | 996.1 |
| 20260507235825 | 11 | 197 | 0.0 | 0.0 | 0.00 | 0.08 | 0.00 | 99 | 996.1 |
| 20260507235325 | 11 | 197 | 0.0 | 0.0 | 0.00 | 0.08 | 0.00 | 99 | 996.0 |
| 20260507234824 | 11 | 197 | 0.0 | 0.0 | 0.13 | 0.08 | 0.00 | 99 | 996.2 |
| 20260507234324 | 11 | 197 | 0.0 | 0.0 | 0.13 | 0.08 | 0.00 | 99 | 996.2 |
| 20260507233823 | 11 | 197 | 0.0 | 0.0 | 0.00 | 0.05 | 0.00 | 99 | 996.2 |
| 20260507233323 | 11 | 197 | 0.0 | 0.0 | 0.00 | 0.05 | 0.00 | 99 | 996.1 |
| 20260507232822 | 11 | 197 | 0.0 | 0.0 | 0.00 | 0.05 | 0.00 | 99 | 996.3 |
| 20260507232322 | 11 | 197 | 0.0 | 0.0 | 0.00 | 0.05 | 0.00 | 99 | 996.2 |
| 20260507231821 | 11 | 197 | 0.0 | 0.0 | 0.00 | 0.05 | 0.00 | 99 | 996.1 |
| 20260507231321 | 11 | 197 | 0.0 | 0.0 | 0.18 | 0.05 | 0.00 | 99 | 996.3 |
| 20260507230820 | 11 | 197 | 0.0 | 0.0 | 0.18 | 0.05 | 0.00 | 99 | 996.2 |
| 20260507230320 | 11 | 197 | 0.0 | 0.0 | 0.00 | 0.03 | 0.00 | 99 | 996.1 |
| 20260507225819 | 11 | 197 | 0.0 | 0.0 | 0.00 | 0.03 | 0.00 | 99 | 996.2 |
| 20260507225318 | 11 | 197 | 0.0 | 0.0 | 0.00 | 0.03 | 0.00 | 99 | 995.9 |
| 20260507224818 | 11 | 197 | 0.0 | 0.0 | 0.00 | 0.03 | 0.00 | 99 | 996.0 |
| 20260507224317 | 11 | 197 | 0.0 | 0.0 | 0.00 | 0.03 | 0.00 | 99 | 996.0 |
| 20260507223817 | 11 | 197 | 0.0 | 0.0 | 0.00 | 0.03 | 0.00 | 99 | 996.0 |
| 20260507223316 | 11 | 197 | 0.0 | 0.0 | 0.00 | 0.03 | 0.00 | 99 | 996.0 |
| 20260507222816 | 11 | 197 | 0.0 | 0.0 | 0.13 | 0.03 | 0.00 | 99 | 995.9 |
| 20260507222315 | 11 | 197 | 0.0 | 0.0 | 0.13 | 0.03 | 0.00 | 99 | 995.9 |
| 20260507221814 | 11 | 197 | 0.0 | 0.0 | 0.00 | 0.00 | 0.00 | 99 | 995.9 |
| 20260507221314 | 11 | 197 | 0.0 | 0.0 | 0.00 | 0.00 | 0.00 | 99 | 996.0 |
| 20260507220813 | 11 | 197 | 0.0 | 0.0 | 0.18 | 0.00 | 0.00 | 99 | 996.0 |
| 20260507220313 | 11 | 197 | 0.0 | 0.0 | 0.18 | 0.00 | 0.00 | 99 | 995.8 |
| 20260507215812 | 11 | 197 | 0.0 | 0.0 | 0.00 | 0.51 | 0.00 | 99 | 995.9 |
| 20260507215312 | 11 | 197 | 0.0 | 0.0 | 0.18 | 0.51 | 0.00 | 99 | 995.8 |
| 20260507214811 | 11 | 197 | 0.0 | 0.0 | 0.18 | 0.51 | 0.00 | 99 | 995.8 |
| 20260507214310 | 11 | 197 | 0.0 | 0.0 | 0.13 | 0.48 | 0.00 | 99 | 996.0 |
| 20260507213810 | 11 | 197 | 0.0 | 0.0 | 0.13 | 0.48 | 0.00 | 99 | 996.0 |
| 20260507213309 | 11 | 197 | 0.0 | 0.0 | 0.00 | 0.46 | 0.00 | 99 | 996.0 |
| 20260507212809 | 11 | 197 | 0.0 | 0.0 | 0.00 | 0.46 | 0.00 | 99 | 996.1 |
| 20260507212308 | 11 | 197 | 0.0 | 0.0 | 0.18 | 0.46 | 0.00 | 99 | 996.1 |
| 20260507211808 | 11 | 197 | 0.0 | 0.0 | 0.18 | 0.46 | 0.00 | 99 | 996.0 |
| 20260507211307 | 11 | 197 | 0.0 | 0.0 | 0.00 | 0.43 | 0.00 | 99 | 996.0 |
| 20260507210306 | 11 | 197 | 0.0 | 0.0 | 0.00 | 0.43 | 0.00 | 99 | 996.0 |
| 20260507205805 | 12 | 197 | 0.0 | 0.0 | 0.00 | 0.43 | 0.00 | 99 | 995.8 |
| 20260507205306 | 12 | 197 | 0.0 | 0.0 | 0.00 | 0.43 | 0.00 | 99 | 995.9 |
| 20260507204804 | 12 | 197 | 0.0 | 0.0 | 0.00 | 0.43 | 0.00 | 99 | 995.8 |
| 20260507204304 | 12 | 197 | 0.0 | 0.0 | 0.00 | 0.43 | 0.00 | 99 | 996.0 |
| 20260507203803 | 12 | 197 | 0.0 | 0.0 | 0.13 | 0.43 | 0.00 | 99 | 995.8 |
| 20260507203303 | 12 | 197 | 0.0 | 0.0 | 0.13 | 0.43 | 0.00 | 99 | 995.8 |
| 20260507202802 | 12 | 197 | 0.0 | 0.0 | 0.13 | 0.43 | 0.00 | 99 | 995.8 |
| 20260507202306 | 12 | 197 | 0.0 | 0.0 | 0.00 | 0.41 | 0.00 | 99 | 995.7 |
| 20260507201801 | 12 | 197 | 0.0 | 0.0 | 0.00 | 0.41 | 0.00 | 99 | 995.2 |
| 20260507201301 | 12 | 197 | 0.0 | 0.0 | 0.00 | 0.41 | 0.00 | 99 | 995.4 |
| 20260507200800 | 12 | 197 | 0.0 | 0.0 | 0.00 | 0.41 | 0.00 | 99 | 995.4 |
| 20260507200300 | 12 | 197 | 0.0 | 0.0 | 0.00 | 0.41 | 0.00 | 99 | 995.3 |
| 20260507195758 | 12 | 197 | 0.0 | 0.0 | 0.00 | 0.41 | 0.00 | 99 | 995.2 |
| 20260507195257 | 12 | 197 | 0.0 | 0.0 | 0.18 | 0.41 | 0.00 | 99 | 995.3 |
| 20260507194757 | 12 | 197 | 0.0 | 0.0 | 0.18 | 0.41 | 0.00 | 99 | 995.2 |
| 20260507194256 | 12 | 197 | 0.0 | 0.0 | 0.00 | 0.38 | 0.00 | 99 | 995.3 |
| 20260507193756 | 12 | 197 | 0.0 | 0.0 | 0.13 | 0.38 | 0.00 | 99 | 995.3 |
| 20260507193255 | 12 | 197 | 0.0 | 0.0 | 0.13 | 0.38 | 0.00 | 99 | 995.3 |
| 20260507192754 | 12 | 187 | 0.0 | 0.0 | 0.18 | 0.36 | 0.00 | 99 | 995.5 |
| 20260507192254 | 12 | 114 | 0.0 | 0.0 | 0.18 | 0.36 | 0.00 | 99 | 995.3 |
| 20260507191753 | 12 | 260 | 0.0 | 0.0 | 0.00 | 0.33 | 0.00 | 99 | 995.5 |
| 20260507191253 | 12 | 259 | 0.0 | 0.0 | 0.30 | 0.33 | 0.00 | 99 | 995.6 |
| 20260507190752 | 12 | 259 | 0.0 | 1.6 | 0.30 | 0.33 | 0.00 | 99 | 995.5 |
| 20260507190251 | 12 | 259 | 0.0 | 1.6 | 0.18 | 0.30 | 0.00 | 99 | 995.4 |
| 20260507185751 | 12 | 260 | 1.6 | 1.6 | 0.00 | 0.28 | 0.00 | 99 | 995.3 |
| 20260507185250 | 12 | 259 | 0.0 | 0.0 | 0.00 | 0.28 | 0.00 | 99 | 995.1 |
| 20260507184750 | 12 | 259 | 1.6 | 1.6 | 0.00 | 0.28 | 0.00 | 98 | 995.0 |
| 20260507184249 | 12 | 260 | 0.0 | 0.0 | 0.00 | 0.28 | 0.00 | 98 | 995.1 |
| 20260507183749 | 12 | 260 | 1.6 | 1.6 | 0.00 | 0.28 | 0.00 | 98 | 995.0 |
| 20260507183248 | 12 | 128 | 0.0 | 0.0 | 0.13 | 0.28 | 0.00 | 98 | 995.0 |
| 20260507182747 | 12 | 127 | 0.0 | 0.0 | 0.13 | 0.28 | 0.00 | 98 | 994.8 |
| 20260507182247 | 12 | 211 | 0.0 | 0.0 | 0.00 | 0.25 | 0.00 | 98 | 994.7 |
| 20260507181746 | 12 | 196 | 1.6 | 1.6 | 0.00 | 0.25 | 0.00 | 98 | 994.6 |
| 20260507181245 | 12 | 131 | 1.6 | 1.6 | 0.00 | 0.25 | 0.00 | 98 | 994.3 |
| 20260507180745 | 12 | 225 | 0.0 | 0.0 | 0.00 | 0.25 | 0.00 | 97 | 994.5 |
| 20260507180244 | 12 | 146 | 0.0 | 0.0 | 0.00 | 0.25 | 0.00 | 97 | 994.4 |
| 20260507175744 | 12 | 147 | 0.0 | 0.0 | 0.00 | 0.25 | 0.00 | 97 | 994.3 |
| 20260507175243 | 12 | 123 | 0.0 | 1.6 | 0.00 | 0.25 | 0.00 | 97 | 994.3 |
| 20260507174742 | 12 | 131 | 0.0 | 0.0 | 0.00 | 0.25 | 0.00 | 97 | 994.3 |
| 20260507174242 | 12 | 133 | 1.6 | 3.2 | 0.00 | 0.25 | 0.00 | 97 | 994.4 |
| 20260507173741 | 12 | 119 | 1.6 | 3.2 | 0.00 | 0.25 | 0.00 | 97 | 994.3 |
| 20260507173241 | 12 | 105 | 0.0 | 0.0 | 0.00 | 0.25 | 0.00 | 97 | 993.9 |
| 20260507172740 | 13 | 103 | 1.6 | 3.2 | 0.00 | 0.25 | 0.00 | 97 | 994.1 |
| 20260507172240 | 13 | 125 | 0.0 | 1.6 | 0.00 | 0.25 | 0.00 | 96 | 994.1 |
| 20260507171739 | 13 | 104 | 1.6 | 3.2 | 0.00 | 0.25 | 0.00 | 96 | 994.1 |
| 20260507171238 | 13 | 121 | 3.2 | 4.8 | 0.18 | 0.25 | 0.00 | 95 | 994.2 |
| 20260507170738 | 13 | 130 | 0.0 | 0.0 | 0.48 | 0.25 | 0.00 | 94 | 994.2 |
| 20260507170237 | 13 | 109 | 1.6 | 1.6 | 0.79 | 0.25 | 0.00 | 93 | 994.3 |
| 20260507165737 | 13 | 89 | 0.0 | 1.6 | 0.79 | 0.18 | 0.00 | 93 | 994.5 |
| 20260507165236 | 13 | 153 | 1.6 | 3.2 | 0.48 | 0.13 | 0.00 | 91 | 994.3 |
| 20260507164736 | 13 | 119 | 3.2 | 3.2 | 0.00 | 0.05 | 0.00 | 90 | 994.3 |
| 20260507164235 | 14 | 102 | 6.4 | 9.7 | 0.00 | 0.05 | 0.00 | 89 | 994.1 |
| 20260507163735 | 14 | 91 | 3.2 | 4.8 | 0.00 | 0.05 | 0.00 | 86 | 994.1 |
| 20260507163234 | 14 | 121 | 8.0 | 11.3 | 0.00 | 0.05 | 0.00 | 84 | 994.2 |
| 20260507162733 | 15 | 131 | 1.6 | 6.4 | 0.00 | 0.05 | 0.00 | 83 | 994.1 |
| 20260507162233 | 15 | 117 | 4.8 | 6.4 | 0.00 | 0.05 | 0.00 | 80 | 994.1 |
| 20260507161732 | 16 | 77 | 3.2 | 4.8 | 0.00 | 0.05 | 0.00 | 77 | 993.9 |
| 20260507161232 | 17 | 79 | 1.6 | 4.8 | 0.00 | 0.05 | 0.00 | 74 | 993.7 |
| 20260507160731 | 18 | 110 | 1.6 | 3.2 | 0.00 | 0.05 | 0.00 | 69 | 993.3 |
| 20260507160230 | 18 | 109 | 4.8 | 6.4 | 0.00 | 0.05 | 0.00 | 65 | 993.3 |
| 20260507155730 | 18 | 228 | 4.8 | 4.8 | 0.00 | 0.05 | 0.00 | 65 | 993.3 |
| 20260507155229 | 18 | 225 | 3.2 | 3.2 | 0.00 | 0.05 | 0.00 | 66 | 993.1 |
| 20260507154728 | 19 | 210 | 4.8 | 4.8 | 0.00 | 0.05 | 0.00 | 65 | 993.2 |
| 20260507154228 | 19 | 228 | 3.2 | 4.8 | 0.00 | 0.05 | 0.00 | 65 | 993.1 |
| 20260507153727 | 19 | 229 | 3.2 | 4.8 | 0.00 | 0.05 | 0.00 | 65 | 993.3 |
| 20260507153226 | 19 | 230 | 11.3 | 12.9 | 0.00 | 0.05 | 0.00 | 64 | 993.1 |
| 20260507152726 | 19 | 209 | 1.6 | 3.2 | 0.00 | 0.05 | 0.00 | 63 | 993.0 |
| 20260507151725 | 20 | 83 | 3.2 | 4.8 | 0.00 | 0.05 | 0.00 | 64 | 992.8 |
| 20260507151224 | 20 | 214 | 1.6 | 3.2 | 0.00 | 0.05 | 0.00 | 64 | 993.0 |
| 20260507150724 | 19 | 219 | 4.8 | 6.4 | 0.00 | 0.05 | 0.00 | 65 | 993.0 |
| 20260507150223 | 20 | 111 | 1.6 | 3.2 | 0.00 | 0.05 | 0.00 | 64 | 993.0 |
| 20260507145722 | 20 | 196 | 1.6 | 3.2 | 0.00 | 0.05 | 0.00 | 63 | 992.9 |
| 20260507145222 | 21 | 235 | 4.8 | 8.0 | 0.00 | 0.05 | 0.00 | 62 | 993.0 |
| 20260507144721 | 21 | 222 | 6.4 | 8.0 | 0.00 | 0.05 | 0.00 | 61 | 992.8 |
| 20260507144221 | 21 | 168 | 0.0 | 1.6 | 0.00 | 0.05 | 0.00 | 59 | 992.9 |
| 20260507143720 | 21 | 184 | 1.6 | 3.2 | 0.00 | 0.05 | 0.00 | 60 | 993.0 |
| 20260507143220 | 20 | 229 | 9.7 | 17.7 | 0.00 | 0.05 | 0.00 | 62 | 993.1 |
| 20260507142719 | 20 | 246 | 1.6 | 4.8 | 0.00 | 0.05 | 0.00 | 64 | 993.0 |
| 20260507142218 | 20 | 235 | 4.8 | 6.4 | 0.00 | 0.05 | 0.00 | 63 | 993.0 |
| 20260507141718 | 20 | 138 | 0.0 | 1.6 | 0.00 | 0.05 | 0.00 | 63 | 993.2 |
| 20260507141217 | 20 | 165 | 8.0 | 9.7 | 0.00 | 0.05 | 0.00 | 63 | 993.0 |
| 20260507140716 | 20 | 233 | 1.6 | 3.2 | 0.00 | 0.05 | 0.00 | 62 | 993.1 |
| 20260507140216 | 20 | 192 | 3.2 | 4.8 | 0.00 | 0.05 | 0.00 | 62 | 993.1 |
| 20260507135715 | 21 | 226 | 3.2 | 6.4 | 0.00 | 0.05 | 0.00 | 60 | 993.0 |
| 20260507135215 | 20 | 234 | 3.2 | 3.2 | 0.00 | 0.05 | 0.00 | 60 | 993.2 |
| 20260507134714 | 20 | 228 | 3.2 | 4.8 | 0.00 | 0.05 | 0.00 | 61 | 993.2 |
| 20260507134214 | 20 | 245 | 4.8 | 6.4 | 0.00 | 0.05 | 0.00 | 62 | 993.2 |
| 20260507133713 | 19 | 237 | 4.8 | 6.4 | 0.00 | 0.05 | 0.00 | 62 | 993.2 |
| 20260507133212 | 19 | 176 | 0.0 | 0.0 | 0.00 | 0.05 | 0.00 | 65 | 993.3 |
| 20260507132712 | 19 | 114 | 1.6 | 1.6 | 0.00 | 0.05 | 0.00 | 64 | 993.2 |
| 20260507132211 | 19 | 166 | 0.0 | 0.0 | 0.00 | 0.05 | 0.00 | 63 | 993.2 |
| 20260507131711 | 19 | 204 | 8.0 | 12.9 | 0.00 | 0.05 | 0.00 | 63 | 992.9 |
| 20260507131210 | 19 | 156 | 3.2 | 4.8 | 0.00 | 0.05 | 0.00 | 62 | 993.3 |
| 20260507130709 | 19 | 227 | 11.3 | 12.9 | 0.00 | 0.05 | 0.00 | 63 | 993.0 |
| 20260507130209 | 19 | 228 | 4.8 | 6.4 | 0.00 | 0.05 | 0.00 | 63 | 993.2 |
| 20260507125708 | 19 | 205 | 4.8 | 6.4 | 0.00 | 0.05 | 0.00 | 63 | 993.1 |
| 20260507125207 | 20 | 214 | 3.2 | 4.8 | 0.00 | 0.05 | 0.00 | 62 | 993.1 |
| 20260507124206 | 20 | 234 | 6.4 | 8.0 | 0.00 | 0.05 | 0.00 | 61 | 992.8 |
| 20260507123706 | 20 | 237 | 11.3 | 17.7 | 0.00 | 0.05 | 0.00 | 60 | 992.9 |
| 20260507123205 | 21 | 229 | 3.2 | 3.2 | 0.00 | 0.05 | 0.00 | 60 | 993.0 |
| 20260507122705 | 21 | 234 | 3.2 | 4.8 | 0.00 | 0.05 | 0.00 | 57 | 993.0 |
| 20260507122204 | 20 | 208 | 6.4 | 9.7 | 0.00 | 0.05 | 0.00 | 57 | 992.9 |
| 20260507121703 | 20 | 213 | 4.8 | 6.4 | 0.00 | 0.05 | 0.00 | 58 | 993.3 |
| 20260507121203 | 20 | 189 | 3.2 | 6.4 | 0.00 | 0.05 | 0.00 | 56 | 993.2 |
| 20260507120702 | 21 | 226 | 6.4 | 9.7 | 0.00 | 0.05 | 0.00 | 55 | 993.2 |
| 20260507120202 | 21 | 230 | 1.6 | 3.2 | 0.00 | 0.05 | 0.00 | 54 | 993.1 |
| 20260507115701 | 20 | 171 | 3.2 | 3.2 | 0.00 | 0.05 | 0.00 | 56 | 993.2 |
| 20260507115200 | 20 | 238 | 6.4 | 8.0 | 0.00 | 0.05 | 0.00 | 57 | 993.1 |
| 20260507114700 | 20 | 246 | 8.0 | 9.7 | 0.00 | 0.05 | 0.00 | 57 | 993.1 |
| 20260507114159 | 21 | 224 | 6.4 | 9.7 | 0.00 | 0.05 | 0.00 | 58 | 993.2 |
| 20260507113659 | 20 | 201 | 6.4 | 9.7 | 0.00 | 0.05 | 0.00 | 59 | 993.1 |
| 20260507113158 | 20 | 235 | 12.9 | 16.1 | 0.00 | 0.05 | 0.00 | 59 | 993.2 |
| 20260507112658 | 21 | 230 | 6.4 | 9.7 | 0.00 | 0.05 | 0.00 | 58 | 993.1 |
| 20260507112157 | 21 | 221 | 3.2 | 4.8 | 0.00 | 0.05 | 0.00 | 58 | 993.1 |
| 20260507111657 | 21 | 221 | 3.2 | 4.8 | 0.00 | 0.05 | 0.00 | 58 | 993.1 |
| 20260507111156 | 21 | 140 | 3.2 | 6.4 | 0.00 | 0.05 | 0.00 | 59 | 992.9 |
| 20260507110655 | 21 | 140 | 3.2 | 6.4 | 0.00 | 0.05 | 0.00 | 59 | 992.9 |
| 20260507110155 | 20 | 89 | 1.6 | 1.6 | 0.00 | 0.05 | 0.00 | 60 | 993.0 |
| 20260507105654 | 21 | 233 | 1.6 | 3.2 | 0.00 | 0.05 | 0.00 | 59 | 993.0 |
| 20260507105154 | 21 | 245 | 3.2 | 4.8 | 0.00 | 0.05 | 0.00 | 58 | 993.1 |
| 20260507104653 | 21 | 257 | 6.4 | 8.0 | 0.00 | 0.05 | 0.00 | 59 | 992.6 |
| 20260507104152 | 21 | 237 | 11.3 | 14.5 | 0.00 | 0.05 | 0.00 | 59 | 993.0 |
| 20260507103652 | 21 | 203 | 6.4 | 8.0 | 0.00 | 0.05 | 0.00 | 59 | 992.8 |
| 20260507103151 | 21 | 130 | 9.7 | 12.9 | 0.00 | 0.05 | 0.00 | 59 | 992.8 |
| 20260507102653 | 21 | 252 | 3.2 | 4.8 | 0.00 | 0.05 | 0.00 | 59 | 993.0 |
| 20260507102150 | 21 | 207 | 3.2 | 3.2 | 0.00 | 0.05 | 0.00 | 58 | 992.8 |
| 20260507101649 | 21 | 214 | 1.6 | 3.2 | 0.00 | 0.05 | 0.00 | 58 | 992.8 |
| 20260507101149 | 21 | 144 | 0.0 | 1.6 | 0.00 | 0.05 | 0.00 | 57 | 992.7 |
| 20260507100648 | 21 | 217 | 4.8 | 4.8 | 0.00 | 0.05 | 0.00 | 58 | 992.8 |
| 20260507100148 | 21 | 121 | 1.6 | 3.2 | 0.00 | 0.05 | 0.00 | 58 | 993.0 |
| 20260507095645 | 21 | 135 | 0.0 | 0.0 | 0.00 | 0.05 | 0.00 | 59 | 993.0 |
| 20260507095144 | 21 | 134 | 3.2 | 4.8 | 0.00 | 0.05 | 0.00 | 58 | 992.8 |
| 20260507094644 | 20 | 223 | 1.6 | 3.2 | 0.00 | 0.05 | 0.00 | 60 | 993.0 |
| 20260507094143 | 20 | 235 | 3.2 | 8.0 | 0.00 | 0.05 | 0.00 | 60 | 992.9 |
| 20260507093642 | 20 | 240 | 4.8 | 8.0 | 0.00 | 0.05 | 0.00 | 60 | 992.6 |
| 20260507093142 | 21 | 212 | 8.0 | 14.5 | 0.00 | 0.05 | 0.00 | 57 | 992.9 |
| 20260507092641 | 21 | 230 | 3.2 | 4.8 | 0.00 | 0.05 | 0.00 | 58 | 992.7 |
| 20260507092141 | 21 | 168 | 3.2 | 3.2 | 0.00 | 0.05 | 0.00 | 58 | 992.6 |
| 20260507091640 | 21 | 107 | 4.8 | 8.0 | 0.00 | 0.05 | 0.00 | 59 | 992.8 |
| 20260507091140 | 21 | 70 | 4.8 | 4.8 | 0.00 | 0.05 | 0.00 | 58 | 992.5 |
| 20260507090639 | 21 | 123 | 1.6 | 1.6 | 0.00 | 0.05 | 0.00 | 60 | 992.6 |
| 20260507090138 | 21 | 266 | 4.8 | 4.8 | 0.00 | 0.05 | 0.00 | 60 | 992.5 |
| 20260507085638 | 21 | 228 | 4.8 | 6.4 | 0.00 | 0.05 | 0.00 | 60 | 992.6 |
| 20260507085137 | 20 | 99 | 0.0 | 1.6 | 0.00 | 0.05 | 0.00 | 63 | 992.5 |
| 20260507084637 | 20 | 189 | 1.6 | 3.2 | 0.00 | 0.05 | 0.00 | 63 | 992.5 |
| 20260507084136 | 20 | 257 | 4.8 | 8.0 | 0.00 | 0.05 | 0.00 | 61 | 992.5 |
| 20260507083635 | 20 | 128 | 3.2 | 4.8 | 0.00 | 0.05 | 0.00 | 62 | 992.5 |
| 20260507083135 | 19 | 175 | 3.2 | 6.4 | 0.00 | 0.05 | 0.00 | 65 | 992.4 |
| 20260507082634 | 18 | 204 | 1.6 | 1.6 | 0.00 | 0.05 | 0.00 | 66 | 992.4 |
| 20260507082134 | 18 | 163 | 3.2 | 4.8 | 0.00 | 0.05 | 0.00 | 67 | 992.4 |
| 20260507081633 | 18 | 195 | 3.2 | 3.2 | 0.00 | 0.05 | 0.00 | 66 | 992.4 |
| 20260507081133 | 19 | 244 | 3.2 | 6.4 | 0.00 | 0.05 | 0.00 | 64 | 992.3 |
| 20260507080626 | 19 | 221 | 4.8 | 8.0 | 0.00 | 0.05 | 0.00 | 64 | 992.3 |
| 20260507080125 | 18 | 55 | 1.6 | 3.2 | 0.00 | 0.05 | 0.00 | 68 | 992.5 |
| 20260507075625 | 18 | 118 | 1.6 | 3.2 | 0.00 | 0.05 | 0.00 | 67 | 992.3 |
| 20260507075124 | 18 | 219 | 3.2 | 4.8 | 0.00 | 0.05 | 0.00 | 67 | 992.3 |
| 20260507074624 | 17 | 217 | 1.6 | 1.6 | 0.00 | 0.05 | 0.00 | 68 | 992.3 |
| 20260507074123 | 18 | 241 | 4.8 | 6.4 | 0.00 | 0.05 | 0.00 | 68 | 992.4 |
| 20260507073622 | 17 | 209 | 3.2 | 4.8 | 0.00 | 0.05 | 0.00 | 70 | 992.5 |
| 20260507073122 | 17 | 213 | 8.0 | 12.9 | 0.00 | 0.05 | 0.00 | 70 | 992.5 |
| 20260507072621 | 17 | 201 | 4.8 | 6.4 | 0.00 | 0.05 | 0.00 | 71 | 992.4 |
| 20260507072121 | 17 | 226 | 3.2 | 4.8 | 0.00 | 0.05 | 0.00 | 71 | 992.3 |
| 20260507071620 | 17 | 164 | 1.6 | 3.2 | 0.00 | 0.05 | 0.00 | 71 | 992.3 |
| 20260507071120 | 17 | 222 | 3.2 | 3.2 | 0.00 | 0.05 | 0.00 | 72 | 992.4 |
| 20260507070619 | 17 | 217 | 0.0 | 0.0 | 0.00 | 0.05 | 0.00 | 73 | 992.3 |
| 20260507070119 | 16 | 228 | 1.6 | 3.2 | 0.00 | 0.05 | 0.00 | 73 | 992.5 |
| 20260507065618 | 16 | 211 | 3.2 | 3.2 | 0.00 | 0.05 | 0.00 | 74 | 992.2 |
| 20260507065118 | 16 | 228 | 1.6 | 3.2 | 0.00 | 0.05 | 0.00 | 75 | 992.3 |
| 20260507064617 | 16 | 209 | 8.0 | 9.7 | 0.00 | 0.05 | 0.00 | 75 | 992.2 |
| 20260507064116 | 16 | 230 | 3.2 | 6.4 | 0.00 | 0.05 | 0.00 | 75 | 992.0 |
| 20260507063616 | 15 | 237 | 4.8 | 6.4 | 0.00 | 0.05 | 0.00 | 76 | 992.3 |
| 20260507063115 | 15 | 237 | 4.8 | 8.0 | 0.00 | 0.05 | 0.00 | 77 | 992.1 |
| 20260507062615 | 15 | 149 | 3.2 | 4.8 | 0.00 | 0.05 | 0.00 | 77 | 992.2 |
| 20260507062114 | 15 | 249 | 6.4 | 8.0 | 0.00 | 0.05 | 0.00 | 77 | 992.3 |
| 20260507061613 | 15 | 226 | 6.4 | 9.7 | 0.00 | 0.05 | 0.00 | 77 | 992.2 |
| 20260507061113 | 15 | 232 | 3.2 | 4.8 | 0.00 | 0.05 | 0.00 | 79 | 992.1 |
| 20260507060613 | 15 | 224 | 4.8 | 8.0 | 0.00 | 0.05 | 0.00 | 79 | 992.2 |
| 20260507060112 | 15 | 262 | 3.2 | 3.2 | 0.00 | 0.05 | 0.00 | 80 | 992.1 |
| 20260507055611 | 15 | 220 | 1.6 | 3.2 | 0.00 | 0.05 | 0.00 | 80 | 992.1 |
| 20260507055111 | 15 | 241 | 4.8 | 6.4 | 0.00 | 0.05 | 0.00 | 79 | 992.1 |
| 20260507054610 | 14 | 216 | 1.6 | 3.2 | 0.00 | 0.05 | 0.00 | 80 | 992.1 |
| 20260507054110 | 14 | 245 | 6.4 | 6.4 | 0.00 | 0.05 | 0.00 | 80 | 992.0 |
| 20260507053609 | 14 | 234 | 4.8 | 6.4 | 0.00 | 0.05 | 0.00 | 81 | 992.3 |
| 20260507053109 | 14 | 232 | 3.2 | 4.8 | 0.00 | 0.05 | 0.00 | 83 | 992.2 |
| 20260507052608 | 13 | 207 | 1.6 | 1.6 | 0.00 | 0.05 | 0.00 | 83 | 991.9 |
| 20260507052108 | 13 | 241 | 1.6 | 3.2 | 0.00 | 0.05 | 0.00 | 83 | 991.8 |
| 20260507051607 | 13 | 239 | 1.6 | 3.2 | 0.00 | 0.05 | 0.00 | 84 | 991.9 |
| 20260507051107 | 13 | 232 | 1.6 | 4.8 | 0.00 | 0.05 | 0.00 | 84 | 991.8 |
| 20260507050606 | 13 | 223 | 6.4 | 8.0 | 0.00 | 0.05 | 0.00 | 86 | 991.7 |
| 20260507050105 | 13 | 234 | 6.4 | 8.0 | 0.00 | 0.05 | 0.00 | 86 | 991.8 |
| 20260507045605 | 13 | 245 | 4.8 | 6.4 | 0.00 | 0.05 | 0.00 | 86 | 991.6 |
| 20260507045105 | 13 | 213 | 1.6 | 3.2 | 0.00 | 0.05 | 0.00 | 87 | 991.7 |
| 20260507044604 | 13 | 187 | 6.4 | 6.4 | 0.00 | 0.05 | 0.00 | 86 | 992.0 |
| 20260507044103 | 13 | 201 | 1.6 | 1.6 | 0.00 | 0.05 | 0.00 | 87 | 991.9 |
| 20260507043603 | 13 | 219 | 3.2 | 3.2 | 0.00 | 0.05 | 0.00 | 87 | 991.9 |
| 20260507043102 | 13 | 207 | 3.2 | 4.8 | 0.00 | 0.05 | 0.00 | 87 | 991.7 |
| 20260507042602 | 13 | 203 | 3.2 | 6.4 | 0.00 | 0.05 | 0.00 | 87 | 991.9 |
| 20260507042101 | 13 | 223 | 3.2 | 3.2 | 0.13 | 0.05 | 0.00 | 87 | 991.7 |
| 20260507041601 | 13 | 228 | 4.8 | 4.8 | 0.13 | 0.05 | 0.00 | 84 | 991.6 |
| 20260507041100 | 13 | 182 | 3.2 | 4.8 | 0.30 | 0.05 | 0.00 | 84 | 991.8 |
| 20260507040600 | 13 | 233 | 3.2 | 4.8 | 0.18 | 0.03 | 0.00 | 83 | 991.9 |
| 20260507040059 | 13 | 226 | 0.0 | 1.6 | 0.00 | 0.00 | 0.00 | 80 | 991.8 |
| 20260507035558 | 14 | 236 | 6.4 | 6.4 | 0.00 | 0.00 | 0.00 | 76 | 991.6 |
| 20260507035058 | 14 | 131 | 4.8 | 8.0 | 0.00 | 0.00 | 0.00 | 74 | 991.4 |
| 20260507034558 | 14 | 231 | 4.8 | 6.4 | 0.00 | 0.00 | 0.00 | 73 | 991.3 |
| 20260507034057 | 14 | 224 | 1.6 | 3.2 | 0.00 | 0.00 | 0.00 | 73 | 991.4 |
| 20260507033556 | 15 | 237 | 1.6 | 3.2 | 0.00 | 0.00 | 0.00 | 72 | 991.3 |
| 20260507033056 | 15 | 221 | 3.2 | 4.8 | 0.00 | 0.00 | 0.00 | 72 | 991.4 |
| 20260507032555 | 15 | 230 | 4.8 | 4.8 | 0.00 | 0.00 | 0.00 | 72 | 991.2 |
| 20260507032055 | 15 | 201 | 0.0 | 0.0 | 0.00 | 0.00 | 0.00 | 72 | 991.4 |
| 20260507031554 | 15 | 212 | 1.6 | 3.2 | 0.00 | 0.00 | 0.00 | 71 | 991.3 |
| 20260507031053 | 15 | 234 | 6.4 | 8.0 | 0.00 | 0.00 | 0.00 | 71 | 991.2 |
| 20260507030553 | 15 | 201 | 3.2 | 4.8 | 0.00 | 0.00 | 0.00 | 71 | 991.2 |
| 20260507030053 | 15 | 235 | 4.8 | 4.8 | 0.00 | 0.00 | 0.00 | 71 | 991.3 |
| 20260507025552 | 15 | 216 | 4.8 | 6.4 | 0.00 | 0.00 | 0.00 | 71 | 991.4 |
| 20260507025051 | 15 | 227 | 4.8 | 4.8 | 0.00 | 0.00 | 0.00 | 70 | 991.4 |
| 20260507024551 | 15 | 251 | 4.8 | 6.4 | 0.00 | 0.00 | 0.00 | 70 | 991.5 |
| 20260507024051 | 15 | 240 | 3.2 | 4.8 | 0.00 | 0.00 | 0.00 | 70 | 991.2 |